Regional Weather Roundup
Issued by NWS

Home | Current Version | Previous Version | Graphics & Text | Print | Product List | Glossary On
Versions: 1 2 3 4 5 6 7 8 9 10 11 12 13 14 15 16 17 18 19 20 21 22 23 24 25 26 27 28 29 30 31 32 33 34 35 36 37 38 39 40 41 42 43 44 45 46 47 48 49 50
614
ASUS43 KFSD 250110
RWRSD

WEATHER ROUNDUP FOR SOUTH DAKOTA
NATIONAL WEATHER SERVICE SIOUX FALLS SD
800 PM CDT THU MAY 24 2018

NOTE: "FAIR" INDICATES FEW OR NO CLOUDS BELOW 12,000 FEET WITH NO
SIGNIFICANT WEATHER AND/OR OBSTRUCTIONS TO VISIBILITY.


SDZ001>005-009-010-012>017-250200-
NORTHWEST AND NORTH CENTRAL SOUTH DAKOTA

CITY           SKY/WX    TMP DP  RH WIND       PRES   REMARKS
BUFFALO          N/A     78  51  38 W16       29.81F
FAITH            N/A     78  61  55 W3        29.85F
MOBRIDGE       SUNNY     81  59  47 W9        29.78S
$$

SDZ012>016-024>037-041>051-057-063-072>074-250200-
SOUTHWEST AND SOUTH CENTRAL SOUTH DAKOTA

CITY           SKY/WX    TMP DP  RH WIND       PRES   REMARKS
RAPID CTY ARPT MOSUNNY   76  61  59 SE8       29.91F
PIERRE         SUNNY     79  60  52 NW8       29.82F
CUSTER         MOSUNNY   70  43  37 W6        30.05S
ELLSWORTH AFB  MOSUNNY   77  56  48 S6        29.90F
PHILIP         MOSUNNY   81  64  56 N3        29.85F
PINE RIDGE     SUNNY     80  52  37 W7        29.93F
SPEARFISH      PTSUNNY   75  54  46 N5        29.94F
WINNER         FAIR      75  63  66 S9        29.87R
$$

SDZ004>011-016>023-039-040-250200-
NORTHEAST SOUTH DAKOTA

CITY           SKY/WX    TMP DP  RH WIND       PRES   REMARKS
ABERDEEN       MOCLDY    83  56  39 W10       29.76S
WATERTOWN      CLOUDY    79  65  62 SW14G24   29.82S
BROOKINGS      CLOUDY    78  63  59 SW8       29.85F
SISSETON         N/A     84  64  50 SW12      29.75F
$$

SDZ017-020-022-023-036>040-048>070-250200-
SOUTHEAST SOUTH DAKOTA

CITY           SKY/WX    TMP DP  RH WIND       PRES   REMARKS
SIOUX FALLS    CLOUDY    76  58  53 S8        29.85F THUNDER
HURON          MOCLDY    80  61  52 S14       29.80F
CHAMBERLAIN    CLOUDY    76  71  83 SW7       29.84F
MITCHELL       PTCLDY    79  58  48 SW8       29.83F
YANKTON        CLOUDY    75  63  66 E5        29.87R
$$

ABBREVIATIONS USED IN REMARKS
   TC - TEMPERATURE IN CELSIUS
  WCI - WIND CHILL INDEX
   HX - HEAT INDEX
  VSB - VISIBILITY





USA.gov is the U.S. government's official web portal to all federal, state and local government web resources and services.